Regional Weather Roundup
Issued by NWS Newport/Morehead, NC

Current Version | Previous Version | Text Only | Print | Product List | Glossary On
Versions: 1 2 3 4 5 6 7 8 9 10 11 12 13 14 15 16 17 18 19 20 21 22 23 24 25 26 27 28 29 30 31 32 33 34 35 36 37 38 39 40 41 42 43 44 45 46 47 48 49 50
000
ASUS42 KMHX 040125
RWRMHX
WEATHER ROUNDUP FOR EASTERN NORTH CAROLINA
NATIONAL WEATHER SERVICE NEWPORT/MOREHEAD CITY NC
900 PM EDT MON AUG 03 2015

NOTE: "FAIR" INDICATES FEW OR NO CLOUDS BELOW 12,000 FEET
WITH NO SIGNIFICANT WEATHER AND/OR OBSTRUCTIONS TO VISIBILITY

NCZ015>017-031-032-045>047-102-103-040200-
NORTH COAST

CITY           SKY/WX    TMP DP  RH WIND       PRES   REMARKS
EDENTON          N/A     79  71  77 S12       29.93R
ELIZABETH CITY CLEAR     79  74  84 S9        29.92R
KITTY HAWK     PTCLDY    78  71  80 SW7       29.93R
MANTEO         CLEAR     78  73  84 SW17      29.95R

$$

NCZ045>047-081-094-103-104-040200-
CENTRAL COAST

CITY           SKY/WX    TMP DP  RH WIND       PRES   REMARKS
FRISCO         MOCLDY    78  73  84 S14G23    29.97S
SWANQUARTER      N/A     79 N/A N/A SW14G23   29.91S

$$

NCZ095-097-098-100-101-040200-
SOUTHERN COAST

CITY           SKY/WX    TMP DP  RH WIND       PRES   REMARKS
BEAUFORT       CLOUDY    79  74  84 S14       29.96S
CEDAR ISLAND     N/A     77 N/A N/A S7        30.00S
JACKSONVILLE   MOCLDY    77  74  90 S3        29.94F
PINEY ISLAND   MOCLDY   N/A N/A N/A S8        29.96R
WILMINGTON     CLOUDY    78  75  90 SE3       29.95R


$$

NCZ011>013-027>030-043-044-078>080-089-090>093-098-040200-
COASTAL PLAIN

CITY           SKY/WX    TMP DP  RH WIND       PRES   REMARKS
AHOSKIE        CLEAR     81  73  77 S6        29.91R
CLINTON        CLEAR     79  73  82 S3        29.94R
ELIZABETHTOWN  PTCLDY    79  74  86 S3        29.94S
GOLDSBORO      CLEAR     81  72  74 S6        29.91R
GREENVILLE     CLEAR     81  72  74 SW9       29.95R
HAVELOCK       MOCLDY    77  74  90 S5        29.97R
KENANSVILLE    CLEAR    N/A N/A N/A CALM      29.95R
KINSTON        CLEAR     79  72  78 S10       29.95R
NEW BERN       PTCLDY    77  73  87 S5        29.96S
RICHLANDS      PTCLDY    75  70  83 S3        29.95S
ROCKY MOUNT    CLEAR     83  72  69 S7        29.91R
WASHINGTON     CLEAR     77  71  79 S9        29.95R
WHITEVILLE     MOCLDY    78  76  93 CALM      29.94S

$$

AMZ130-135-150-152-154-156-158-170-250-252-270-ANZ085-086-088-633-658-670-040200-
MARINE OBSERVATIONS

STATION/POSITION TIME  TEMP    WIND        PRES    WAVE   SWELL
                       AIR SEA DIR/SP/G            HT/PER HT/PER
                 (UTC) (F)     (DEG/KT/KT) (MB)    (FT/S) (FT/S)
CHESAPEAKE LIGHT 0100   80     200/ 19/ 21 1012.7
64 E VA BEACH    0050   79 81  210/ 21/ 25 1013.0    5/ 6   2/11
DUCK             0100   79 65  210/ 11/ 15 1012.7
2 E DUCK         0011      69                N/A     2/12
OREGON INLET     0100   80 81  200/ 19/ 23 1014.1
13E OREGON INLT  0100      80                N/A     4/ 4   2/11
HATTERAS CG      0100   78 80  180/  9/ 16 1014.5
DIAMOND BUOY     0050   80 84  180/ 19/ 23 1014.7    4/ 6   2/ 6
CAPE LOOKOUT     0100   80     190/ 11/ 13 1014.6
BEAUFORT LAB     0100   80 80  200/ 11/ 13 1014.0
30 SE NEW RVR IN NOT AVBL
27 SE WRIGHTSVLE 0100   78 82  200/ 14/ 16   N/A
5 SE WRIGHTSVLE  0008   81 82  200/ 12/ 16 1013.6
225 S CAPE HAT   0050   80 81  220/ 12/ 16 1017.8    5/ 6   3/ 6
41 SE CHARLESTON 0050   83 83  140/  8/ 10 1013.0    5/ 6   5/ 6

$$


USA.gov is the U.S. government's official web portal to all federal, state and local government web resources and services.